Time,TemperatureF,DewpointF,PressureIn,WindDirection,WindDirectionDegrees,WindSpeedMPH,WindSpeedGustMPH,Humidity,HourlyPrecipIn,Conditions,Clouds,dailyrainin,SolarRadiationWatts/m^2,SoftwareType,DateUTC
2013-02-06 00:00:00,53.7,49.6,30.01,SSW,203,0.0,0.0,86,0.00,,,0.00,0.00,VWS V14.01,2013-02-06 05:00:00,
2013-02-06 00:05:00,53.5,49.1,30.01,SSW,204,1.1,1.1,85,0.00,,,0.00,0.00,VWS V14.01,2013-02-06 05:05:00,
2013-02-06 00:10:00,53.2,49.1,30.01,SSW,207,0.0,1.1,86,0.00,,,0.00,0.00,VWS V14.01,2013-02-06 05:10:00,
2013-02-06 00:15:00,53.2,49.1,30.01,South,182,0.0,0.0,86,0.00,,,0.00,0.00,VWS V14.01,2013-02-06 05:15:00,
2013-02-06 00:20:00,53.0,48.9,30.01,SSW,208,1.1,1.1,86,0.00,,,0.00,0.00,VWS V14.01,2013-02-06 05:20:00,
2013-02-06 00:25:00,52.5,48.7,30.01,SSW,208,1.1,1.1,87,0.00,,,0.00,0.00,VWS V14.01,2013-02-06 05:25:00,
2013-02-06 00:30:00,52.7,49.2,30.01,South,180,1.1,1.1,88,0.00,,,0.00,0.00,VWS V14.01,2013-02-06 05:30:00,
2013-02-06 00:35:00,53.0,49.2,30.01,SSW,211,0.0,1.1,87,0.00,,,0.00,0.00,VWS V14.01,2013-02-06 05:35:00,
2013-02-06 00:40:00,53.2,49.4,30.01,SSW,209,0.0,0.0,87,0.00,,,0.00,0.00,VWS V14.01,2013-02-06 05:40:00,
2013-02-06 00:45:00,53.2,49.2,30.02,SSW,210,0.0,0.0,86,0.00,,,0.00,0.00,VWS V14.01,2013-02-06 05:45:00,
2013-02-06 00:50:00,53.2,49.2,30.02,SSW,210,1.1,1.1,86,0.00,,,0.00,0.00,VWS V14.01,2013-02-06 05:50:00,
2013-02-06 00:55:00,53.2,49.1,30.02,SW,233,0.0,1.1,86,0.00,,,0.00,0.00,VWS V14.01,2013-02-06 05:55:00,
2013-02-06 01:00:00,52.8,48.7,30.02,SSW,200,0.0,0.0,86,0.00,,,0.00,0.00,VWS V14.01,2013-02-06 06:00:00,
2013-02-06 01:05:00,52.3,48.6,30.02,WSW,256,0.0,0.0,87,0.00,,,0.00,0.00,VWS V14.01,2013-02-06 06:05:00,
2013-02-06 01:10:00,52.5,48.4,30.02,SW,234,0.0,0.0,86,0.00,,,0.00,0.00,VWS V14.01,2013-02-06 06:10:00,
2013-02-06 01:15:00,52.2,48.8,30.02,SW,229,0.0,0.0,88,0.00,,,0.00,0.00,VWS V14.01,2013-02-06 06:15:00,
2013-02-06 01:20:00,52.3,48.6,30.02,SW,229,2.2,2.2,87,0.00,,,0.00,0.00,VWS V14.01,2013-02-06 06:20:00,
2013-02-06 01:25:00,52.7,48.9,30.02,SW,229,0.0,0.0,87,0.00,,,0.00,0.00,VWS V14.01,2013-02-06 06:25:00,
2013-02-06 01:30:00,52.7,48.9,30.02,SSW,207,0.0,1.1,87,0.00,,,0.00,0.00,VWS V14.01,2013-02-06 06:30:00,
2013-02-06 01:35:00,52.8,49.0,30.02,SSW,206,2.2,2.2,87,0.00,,,0.00,0.00,VWS V14.01,2013-02-06 06:35:00,
2013-02-06 01:40:00,52.7,48.3,30.02,SSW,207,0.0,0.0,85,0.00,,,0.00,0.00,VWS V14.01,2013-02-06 06:40:00,
2013-02-06 01:45:00,51.7,47.9,30.02,SW,216,0.0,0.0,87,0.00,,,0.00,0.00,VWS V14.01,2013-02-06 06:45:00,
2013-02-06 01:50:00,51.7,48.2,30.02,SW,216,0.0,0.0,88,0.00,,,0.00,0.00,VWS V14.01,2013-02-06 06:50:00,
2013-02-06 01:55:00,51.0,47.6,30.02,SW,216,0.0,0.0,88,0.00,,,0.00,0.00,VWS V14.01,2013-02-06 06:55:00,
2013-02-06 02:00:00,50.2,47.1,30.02,SW,216,0.0,0.0,89,0.00,,,0.00,0.00,VWS V14.01,2013-02-06 07:00:00,
2013-02-06 02:05:00,49.5,46.7,30.02,SW,216,0.0,0.0,90,0.00,,,0.00,0.00,VWS V14.01,2013-02-06 07:05:00,
2013-02-06 02:10:00,49.3,46.8,30.02,SW,216,0.0,0.0,91,0.00,,,0.00,0.00,VWS V14.01,2013-02-06 07:10:00,
2013-02-06 02:15:00,49.0,46.8,30.02,SW,216,0.0,0.0,92,0.00,,,0.00,0.00,VWS V14.01,2013-02-06 07:15:00,
2013-02-06 02:20:00,48.8,46.5,30.02,SW,216,0.0,0.0,92,0.00,,,0.00,0.00,VWS V14.01,2013-02-06 07:20:00,
2013-02-06 02:25:00,48.7,46.4,30.02,SW,216,0.0,0.0,92,0.00,,,0.00,0.00,VWS V14.01,2013-02-06 07:25:00,
2013-02-06 02:30:00,48.5,46.6,30.02,SW,216,0.0,0.0,93,0.00,,,0.00,0.00,VWS V14.01,2013-02-06 07:30:00,
2013-02-06 02:35:00,48.7,46.4,30.02,SW,216,0.0,0.0,92,0.00,,,0.00,0.00,VWS V14.01,2013-02-06 07:35:00,
2013-02-06 02:40:00,48.5,46.3,30.02,SW,227,0.0,0.0,92,0.00,,,0.00,0.00,VWS V14.01,2013-02-06 07:40:00,
2013-02-06 02:45:00,48.7,46.7,30.02,SW,225,0.0,0.0,93,0.00,,,0.00,0.00,VWS V14.01,2013-02-06 07:45:00,
2013-02-06 02:50:00,48.8,46.8,30.02,SW,225,0.0,1.1,93,0.00,,,0.00,0.00,VWS V14.01,2013-02-06 07:50:00,
2013-02-06 02:55:00,49.2,47.2,30.02,SW,225,0.0,0.0,93,0.00,,,0.00,0.00,VWS V14.01,2013-02-06 07:55:00,
2013-02-06 03:00:00,49.3,47.4,30.02,South,187,0.0,0.0,93,0.00,,,0.00,0.00,VWS V14.01,2013-02-06 08:00:00,
2013-02-06 03:05:00,49.7,47.7,30.02,WSW,242,0.0,0.0,93,0.00,,,0.00,0.00,VWS V14.01,2013-02-06 08:05:00,
2013-02-06 03:10:00,50.0,48.0,30.02,WSW,242,0.0,0.0,93,0.00,,,0.00,0.00,VWS V14.01,2013-02-06 08:10:00,
2013-02-06 03:15:00,50.2,48.2,30.02,WSW,241,0.0,0.0,93,0.00,,,0.00,0.00,VWS V14.01,2013-02-06 08:15:00,
2013-02-06 03:20:00,50.5,48.2,30.02,WSW,241,0.0,0.0,92,0.00,,,0.00,0.00,VWS V14.01,2013-02-06 08:20:00,
2013-02-06 03:25:00,50.5,48.3,30.02,WSW,241,0.0,0.0,92,0.00,,,0.00,0.00,VWS V14.01,2013-02-06 08:25:00,
2013-02-06 03:30:00,50.2,47.9,30.02,NW,306,0.0,0.0,92,0.00,,,0.00,0.00,VWS V14.01,2013-02-06 08:30:00,
2013-02-06 03:35:00,49.8,47.6,30.02,NW,306,0.0,0.0,92,0.00,,,0.00,0.00,VWS V14.01,2013-02-06 08:35:00,
2013-02-06 03:40:00,49.7,47.4,30.02,NW,306,0.0,0.0,92,0.00,,,0.00,0.00,VWS V14.01,2013-02-06 08:40:00,
2013-02-06 03:45:00,49.5,47.6,30.02,NW,306,0.0,0.0,93,0.00,,,0.00,0.00,VWS V14.01,2013-02-06 08:45:00,
2013-02-06 03:50:00,49.3,47.4,30.02,NW,306,0.0,0.0,93,0.00,,,0.00,0.00,VWS V14.01,2013-02-06 08:50:00,
2013-02-06 03:55:00,49.0,47.1,30.02,NW,306,0.0,0.0,93,0.00,,,0.00,0.00,VWS V14.01,2013-02-06 08:55:00,
2013-02-06 04:00:00,48.8,46.8,30.03,NW,305,0.0,0.0,93,0.00,,,0.00,0.00,VWS V14.01,2013-02-06 09:00:00,
2013-02-06 04:05:00,48.5,46.5,30.03,NW,306,0.0,0.0,93,0.00,,,0.00,0.00,VWS V14.01,2013-02-06 09:05:00,
2013-02-06 04:10:00,48.3,46.4,30.03,NW,306,0.0,0.0,93,0.00,,,0.00,0.00,VWS V14.01,2013-02-06 09:10:00,
2013-02-06 04:15:00,48.2,46.2,30.03,NW,306,0.0,0.0,93,0.00,,,0.00,0.00,VWS V14.01,2013-02-06 09:15:00,
2013-02-06 04:20:00,48.2,46.6,30.03,NW,306,0.0,0.0,94,0.00,,,0.00,0.00,VWS V14.01,2013-02-06 09:20:00,
2013-02-06 04:25:00,48.3,46.7,30.03,NW,306,0.0,0.0,94,0.00,,,0.00,0.00,VWS V14.01,2013-02-06 09:25:00,
2013-02-06 04:30:00,48.2,46.5,30.03,NW,305,0.0,0.0,94,0.00,,,0.00,0.00,VWS V14.01,2013-02-06 09:30:00,
2013-02-06 04:35:00,47.8,46.1,30.03,NW,305,0.0,0.0,94,0.00,,,0.00,0.00,VWS V14.01,2013-02-06 09:35:00,
2013-02-06 04:40:00,47.5,45.8,30.04,NW,306,0.0,0.0,94,0.00,,,0.00,0.00,VWS V14.01,2013-02-06 09:40:00,
2013-02-06 04:45:00,47.2,45.6,30.04,NW,306,0.0,0.0,94,0.00,,,0.00,0.00,VWS V14.01,2013-02-06 09:45:00,
2013-02-06 04:50:00,47.0,45.3,30.04,NW,305,0.0,0.0,94,0.00,,,0.00,0.00,VWS V14.01,2013-02-06 09:50:00,
2013-02-06 04:55:00,46.7,45.0,30.04,NW,306,0.0,0.0,94,0.00,,,0.00,0.00,VWS V14.01,2013-02-06 09:55:00,
2013-02-06 05:00:00,46.5,45.2,30.04,NW,305,0.0,0.0,95,0.00,,,0.00,0.00,VWS V14.01,2013-02-06 10:00:00,
2013-02-06 05:05:00,46.7,45.3,30.04,NW,306,0.0,0.0,95,0.00,,,0.00,0.00,VWS V14.01,2013-02-06 10:05:00,
2013-02-06 05:10:00,46.7,45.3,30.04,NW,305,0.0,0.0,95,0.00,,,0.00,0.00,VWS V14.01,2013-02-06 10:10:00,
2013-02-06 05:15:00,46.7,45.3,30.04,NW,306,0.0,0.0,95,0.00,,,0.00,0.00,VWS V14.01,2013-02-06 10:15:00,
2013-02-06 05:20:00,46.5,45.1,30.05,NW,306,0.0,0.0,95,0.00,,,0.00,0.00,VWS V14.01,2013-02-06 10:20:00,
2013-02-06 05:25:00,46.2,44.8,30.05,NW,305,0.0,0.0,95,0.00,,,0.00,0.00,VWS V14.01,2013-02-06 10:25:00,
2013-02-06 05:30:00,46.0,44.6,30.05,NW,306,0.0,0.0,95,0.00,,,0.00,0.00,VWS V14.01,2013-02-06 10:30:00,
2013-02-06 05:35:00,46.0,44.6,30.05,NW,306,0.0,0.0,95,0.00,,,0.00,0.00,VWS V14.01,2013-02-06 10:35:00,
2013-02-06 05:40:00,45.8,44.5,30.05,NW,305,0.0,0.0,95,0.00,,,0.00,0.00,VWS V14.01,2013-02-06 10:40:00,
2013-02-06 05:45:00,45.5,44.2,30.05,NW,306,0.0,0.0,95,0.00,,,0.00,0.00,VWS V14.01,2013-02-06 10:45:00,
2013-02-06 05:50:00,45.5,44.1,30.05,NW,305,0.0,0.0,95,0.00,,,0.00,0.00,VWS V14.01,2013-02-06 10:50:00,
2013-02-06 05:55:00,45.8,44.7,30.05,NW,305,0.0,0.0,96,0.00,,,0.00,0.00,VWS V14.01,2013-02-06 10:55:00,
2013-02-06 06:00:00,45.7,44.6,30.06,NW,305,0.0,0.0,96,0.00,,,0.00,0.00,VWS V14.01,2013-02-06 11:00:00,
2013-02-06 06:05:00,45.2,43.9,30.06,NW,306,0.0,0.0,95,0.00,,,0.00,0.00,VWS V14.01,2013-02-06 11:05:00,
2013-02-06 06:10:00,45.2,44.1,30.06,NW,305,0.0,0.0,96,0.00,,,0.00,0.00,VWS V14.01,2013-02-06 11:10:00,
2013-02-06 06:15:00,44.8,43.8,30.06,NW,306,0.0,0.0,96,0.00,,,0.00,0.00,VWS V14.01,2013-02-06 11:15:00,
2013-02-06 06:20:00,44.7,43.6,30.07,NW,305,0.0,0.0,96,0.00,,,0.00,0.00,VWS V14.01,2013-02-06 11:20:00,
2013-02-06 06:25:00,44.8,43.7,30.07,NW,306,0.0,0.0,96,0.00,,,0.00,0.00,VWS V14.01,2013-02-06 11:25:00,
2013-02-06 06:30:00,44.8,43.8,30.07,NW,305,0.0,0.0,96,0.00,,,0.00,0.00,VWS V14.01,2013-02-06 11:30:00,
2013-02-06 06:35:00,45.0,43.9,30.07,NW,305,0.0,0.0,96,0.00,,,0.00,0.00,VWS V14.01,2013-02-06 11:35:00,
2013-02-06 06:40:00,44.7,43.6,30.07,NW,305,0.0,0.0,96,0.00,,,0.00,0.00,VWS V14.01,2013-02-06 11:40:00,
2013-02-06 06:45:00,44.5,43.4,30.08,NW,306,0.0,0.0,96,0.00,,,0.00,0.00,VWS V14.01,2013-02-06 11:45:00,
2013-02-06 06:50:00,44.7,43.6,30.08,NW,306,0.0,0.0,96,0.00,,,0.00,0.00,VWS V14.01,2013-02-06 11:50:00,
2013-02-06 06:55:00,44.5,43.5,30.08,NW,306,0.0,0.0,96,0.00,,,0.00,0.00,VWS V14.01,2013-02-06 11:55:00,
2013-02-06 07:00:00,44.2,43.2,30.08,NW,306,0.0,0.0,96,0.00,,,0.00,0.00,VWS V14.01,2013-02-06 12:00:00,
2013-02-06 07:05:00,44.0,42.9,30.08,NW,305,0.0,0.0,96,0.00,,,0.00,0.00,VWS V14.01,2013-02-06 12:05:00,
2013-02-06 07:10:00,44.0,42.9,30.08,NW,305,0.0,0.0,96,0.00,,,0.00,0.00,VWS V14.01,2013-02-06 12:10:00,
2013-02-06 07:15:00,44.0,42.9,30.08,NW,306,0.0,0.0,96,0.00,,,0.00,0.00,VWS V14.01,2013-02-06 12:15:00,
2013-02-06 07:20:00,43.8,42.8,30.09,NW,305,0.0,0.0,96,0.00,,,0.00,5.00,VWS V14.01,2013-02-06 12:20:00,
2013-02-06 07:25:00,44.0,42.9,30.09,NW,305,0.0,0.0,96,0.00,,,0.00,7.00,VWS V14.01,2013-02-06 12:25:00,
2013-02-06 07:29:00,43.8,42.8,30.09,NW,306,0.0,0.0,96,0.00,,,0.00,9.00,VWS V14.01,2013-02-06 12:29:00,
2013-02-06 07:34:00,44.0,42.9,30.10,NW,306,0.0,0.0,96,0.00,,,0.00,11.00,VWS V14.01,2013-02-06 12:34:00,
2013-02-06 07:40:00,44.2,43.1,30.10,NW,305,0.0,0.0,96,0.00,,,0.00,12.00,VWS V14.01,2013-02-06 12:40:00,
2013-02-06 07:45:00,44.2,43.2,30.10,NW,305,0.0,0.0,96,0.00,,,0.00,16.00,VWS V14.01,2013-02-06 12:45:00,
2013-02-06 07:49:00,44.5,43.4,30.11,NW,305,0.0,0.0,96,0.00,,,0.00,18.00,VWS V14.01,2013-02-06 12:49:00,
2013-02-06 07:54:00,44.8,43.7,30.10,NW,306,0.0,0.0,96,0.00,,,0.00,21.00,VWS V14.01,2013-02-06 12:54:00,
2013-02-06 07:59:00,44.8,43.8,30.11,NW,306,0.0,0.0,96,0.00,,,0.00,21.00,VWS V14.01,2013-02-06 12:59:00,
2013-02-06 08:04:00,44.8,43.8,30.11,NW,306,0.0,0.0,96,0.00,,,0.00,23.00,VWS V14.01,2013-02-06 13:04:00,
2013-02-06 08:09:00,45.0,44.0,30.11,NW,306,0.0,0.0,96,0.00,,,0.00,25.00,VWS V14.01,2013-02-06 13:09:00,
2013-02-06 08:14:00,45.2,44.2,30.11,NW,306,0.0,0.0,96,0.00,,,0.00,25.00,VWS V14.01,2013-02-06 13:14:00,
2013-02-06 08:19:00,45.5,44.8,30.12,NW,306,0.0,0.0,97,0.00,,,0.00,26.00,VWS V14.01,2013-02-06 13:19:00,
2013-02-06 08:24:00,46.2,45.3,30.12,NW,305,0.0,0.0,97,0.00,,,0.00,28.00,VWS V14.01,2013-02-06 13:24:00,
2013-02-06 08:29:00,46.8,46.0,30.12,NW,305,0.0,0.0,97,0.00,,,0.00,28.00,VWS V14.01,2013-02-06 13:29:00,
2013-02-06 08:34:00,48.5,47.7,30.12,NW,306,0.0,0.0,97,0.00,,,0.00,30.00,VWS V14.01,2013-02-06 13:34:00,
2013-02-06 08:39:00,49.2,48.4,30.12,NW,305,0.0,0.0,97,0.00,,,0.00,32.00,VWS V14.01,2013-02-06 13:39:00,
2013-02-06 08:44:00,50.2,49.3,30.12,WNW,302,0.0,0.0,97,0.00,,,0.00,32.00,VWS V14.01,2013-02-06 13:44:00,
2013-02-06 08:49:00,51.0,50.2,30.13,WNW,295,0.0,0.0,97,0.00,,,0.00,33.00,VWS V14.01,2013-02-06 13:49:00,
2013-02-06 08:54:00,52.0,50.8,30.13,WNW,295,0.0,1.1,96,0.00,,,0.00,33.00,VWS V14.01,2013-02-06 13:54:00,
2013-02-06 08:59:00,52.8,51.7,30.13,NW,325,2.2,3.3,96,0.00,,,0.00,35.00,VWS V14.01,2013-02-06 13:59:00,
2013-02-06 09:04:00,53.8,52.1,30.13,NW,326,0.0,1.1,94,0.00,,,0.00,35.00,VWS V14.01,2013-02-06 14:04:00,
2013-02-06 09:09:00,54.5,52.3,30.13,WNW,285,2.2,3.3,92,0.00,,,0.00,37.00,VWS V14.01,2013-02-06 14:09:00,
2013-02-06 09:14:00,55.3,52.5,30.13,WNW,294,3.3,3.3,90,0.00,,,0.00,37.00,VWS V14.01,2013-02-06 14:14:00,
2013-02-06 09:19:00,56.0,52.5,30.13,WNW,295,3.3,3.3,88,0.00,,,0.00,39.00,VWS V14.01,2013-02-06 14:19:00,
2013-02-06 09:24:00,56.5,52.4,30.13,West,266,0.0,1.1,86,0.00,,,0.00,39.00,VWS V14.01,2013-02-06 14:24:00,
2013-02-06 09:29:00,57.0,52.6,30.13,WNW,283,0.0,1.1,85,0.00,,,0.00,40.00,VWS V14.01,2013-02-06 14:29:00,
2013-02-06 09:34:00,57.7,52.9,30.14,NNW,337,3.3,4.4,84,0.00,,,0.00,40.00,VWS V14.01,2013-02-06 14:34:00,
2013-02-06 09:39:00,57.8,52.3,30.13,WNW,294,2.2,4.4,82,0.00,,,0.00,44.00,VWS V14.01,2013-02-06 14:39:00,
2013-02-06 09:44:00,58.2,52.8,30.13,WNW,289,1.1,1.1,82,0.00,,,0.00,63.00,VWS V14.01,2013-02-06 14:44:00,
2013-02-06 09:49:00,59.0,53.2,30.13,NW,309,1.1,2.2,81,0.00,,,0.00,209.00,VWS V14.01,2013-02-06 14:49:00,
2013-02-06 09:54:00,59.8,52.9,30.13,WNW,287,2.2,3.3,78,0.00,,,0.00,388.00,VWS V14.01,2013-02-06 14:54:00,
2013-02-06 09:59:00,60.2,52.7,30.14,NW,326,1.1,3.3,76,0.00,,,0.00,417.00,VWS V14.01,2013-02-06 14:59:00,
2013-02-06 10:04:00,60.5,53.3,30.14,NNW,335,0.0,0.0,77,0.00,,,0.00,432.00,VWS V14.01,2013-02-06 15:04:00,
2013-02-06 10:09:00,61.2,53.3,30.14,WNW,288,1.1,5.5,75,0.00,,,0.00,443.00,VWS V14.01,2013-02-06 15:09:00,
2013-02-06 10:14:00,62.2,53.1,30.14,WSW,247,1.1,2.2,72,0.00,,,0.00,455.00,VWS V14.01,2013-02-06 15:14:00,
2013-02-06 10:19:00,62.7,53.5,30.14,North,358,0.0,0.0,72,0.00,,,0.00,471.00,VWS V14.01,2013-02-06 15:19:00,
2013-02-06 10:24:00,63.2,53.2,30.14,North,8,3.3,4.4,70,0.00,,,0.00,487.00,VWS V14.01,2013-02-06 15:24:00,
2013-02-06 10:29:00,63.7,52.5,30.14,NNE,25,0.0,0.0,67,0.00,,,0.00,503.00,VWS V14.01,2013-02-06 15:29:00,
2013-02-06 10:34:00,64.4,51.2,30.14,NNW,339,2.2,5.5,62,0.00,,,0.00,519.00,VWS V14.01,2013-02-06 15:34:00,
2013-02-06 10:39:00,64.8,50.2,30.14,NW,311,2.2,4.4,59,0.00,,,0.00,526.00,VWS V14.01,2013-02-06 15:39:00,
2013-02-06 10:44:00,65.8,50.7,30.14,NW,310,1.1,5.5,58,0.00,,,0.00,541.00,VWS V14.01,2013-02-06 15:44:00,
2013-02-06 10:49:00,66.2,50.5,30.14,NW,326,2.2,3.3,57,0.00,,,0.00,550.00,VWS V14.01,2013-02-06 15:49:00,
2013-02-06 10:54:00,66.3,50.7,30.14,NE,43,1.1,1.1,57,0.00,,,0.00,559.00,VWS V14.01,2013-02-06 15:54:00,
2013-02-06 10:59:00,66.4,50.8,30.14,ENE,62,1.1,1.1,57,0.00,,,0.00,568.00,VWS V14.01,2013-02-06 15:59:00,
2013-02-06 11:04:00,67.1,48.9,30.14,NNW,329,2.2,4.4,52,0.00,,,0.00,580.00,VWS V14.01,2013-02-06 16:04:00,
2013-02-06 11:09:00,66.9,48.8,30.14,NNE,13,2.2,5.5,52,0.00,,,0.00,591.00,VWS V14.01,2013-02-06 16:09:00,
2013-02-06 11:14:00,68.2,50.9,30.14,NW,315,2.2,4.4,54,0.00,,,0.00,599.00,VWS V14.01,2013-02-06 16:14:00,
2013-02-06 11:19:00,67.8,48.5,30.14,NNE,17,3.3,3.3,50,0.00,,,0.00,608.00,VWS V14.01,2013-02-06 16:19:00,
2013-02-06 11:24:00,67.7,49.4,30.14,NNE,21,2.2,4.4,52,0.00,,,0.00,615.00,VWS V14.01,2013-02-06 16:24:00,
2013-02-06 11:29:00,68.3,50.1,30.13,North,358,3.3,4.4,52,0.00,,,0.00,622.00,VWS V14.01,2013-02-06 16:29:00,
2013-02-06 11:34:00,68.2,48.4,30.13,NE,34,0.0,2.2,49,0.00,,,0.00,629.00,VWS V14.01,2013-02-06 16:34:00,
2013-02-06 11:39:00,69.2,49.2,30.13,NE,44,3.3,3.3,49,0.00,,,0.00,636.00,VWS V14.01,2013-02-06 16:39:00,
2013-02-06 11:44:00,69.2,46.3,30.13,North,8,1.1,1.1,44,0.00,,,0.00,640.00,VWS V14.01,2013-02-06 16:44:00,
2013-02-06 11:49:00,69.3,47.7,30.13,SW,218,1.1,3.3,46,0.00,,,0.00,650.00,VWS V14.01,2013-02-06 16:49:00,
2013-02-06 11:54:00,69.2,46.4,30.13,SSE,148,0.0,2.2,44,0.00,,,0.00,654.00,VWS V14.01,2013-02-06 16:54:00,
2013-02-06 11:59:00,69.8,46.9,30.13,NNW,333,2.2,4.4,44,0.00,,,0.00,659.00,VWS V14.01,2013-02-06 16:59:00,
2013-02-06 12:04:00,70.1,47.2,30.13,NNE,17,3.3,3.3,44,0.00,,,0.00,661.00,VWS V14.01,2013-02-06 17:04:00,
2013-02-06 12:09:00,70.1,47.2,30.12,NE,34,0.0,1.1,44,0.00,,,0.00,664.00,VWS V14.01,2013-02-06 17:09:00,
2013-02-06 12:14:00,70.7,48.3,30.12,North,353,4.4,4.4,45,0.00,,,0.00,670.00,VWS V14.01,2013-02-06 17:14:00,
2013-02-06 12:19:00,70.6,47.0,30.12,NNE,23,2.2,3.3,43,0.00,,,0.00,673.00,VWS V14.01,2013-02-06 17:19:00,
2013-02-06 12:24:00,71.2,48.8,30.12,NNW,333,3.3,5.5,45,0.00,,,0.00,675.00,VWS V14.01,2013-02-06 17:24:00,
2013-02-06 12:29:00,70.8,46.6,30.12,NE,50,0.0,1.1,42,0.00,,,0.00,671.00,VWS V14.01,2013-02-06 17:29:00,
2013-02-06 12:34:00,70.9,47.4,30.11,NE,56,0.0,2.2,43,0.00,,,0.00,675.00,VWS V14.01,2013-02-06 17:34:00,
2013-02-06 12:39:00,70.8,46.6,30.11,WNW,298,3.3,5.5,42,0.00,,,0.00,679.00,VWS V14.01,2013-02-06 17:39:00,
2013-02-06 12:44:00,70.7,47.7,30.11,NNW,344,1.1,4.4,44,0.00,,,0.00,679.00,VWS V14.01,2013-02-06 17:44:00,
2013-02-06 12:49:00,71.6,48.5,30.11,NW,313,2.2,3.3,44,0.00,,,0.00,680.00,VWS V14.01,2013-02-06 17:49:00,
2013-02-06 12:54:00,70.9,47.4,30.11,NNE,25,0.0,0.0,43,0.00,,,0.00,679.00,VWS V14.01,2013-02-06 17:54:00,
2013-02-06 12:59:00,71.2,48.2,30.10,West,275,1.1,1.1,44,0.00,,,0.00,677.00,VWS V14.01,2013-02-06 17:59:00,
2013-02-06 13:04:00,71.6,46.6,30.10,NW,310,1.1,1.1,41,0.00,,,0.00,677.00,VWS V14.01,2013-02-06 18:04:00,
2013-02-06 13:09:00,70.9,47.4,30.10,NW,318,0.0,1.1,43,0.00,,,0.00,673.00,VWS V14.01,2013-02-06 18:09:00,
2013-02-06 13:14:00,71.4,47.2,30.10,North,11,0.0,1.1,42,0.00,,,0.00,668.00,VWS V14.01,2013-02-06 18:14:00,
2013-02-06 13:19:00,71.8,47.5,30.10,West,272,1.1,2.2,42,0.00,,,0.00,666.00,VWS V14.01,2013-02-06 18:19:00,
2013-02-06 13:24:00,72.2,47.2,30.09,South,191,3.3,4.4,41,0.00,,,0.00,659.00,VWS V14.01,2013-02-06 18:24:00,
2013-02-06 13:29:00,71.7,46.7,30.09,ENE,69,1.1,1.1,41,0.00,,,0.00,663.00,VWS V14.01,2013-02-06 18:29:00,
2013-02-06 13:34:00,71.8,46.9,30.09,West,269,1.1,3.3,41,0.00,,,0.00,659.00,VWS V14.01,2013-02-06 18:34:00,
2013-02-06 13:39:00,72.3,47.3,30.09,West,272,1.1,4.4,41,0.00,,,0.00,654.00,VWS V14.01,2013-02-06 18:39:00,
2013-02-06 13:44:00,72.2,46.5,30.08,WNW,294,1.1,2.2,40,0.00,,,0.00,647.00,VWS V14.01,2013-02-06 18:44:00,
2013-02-06 13:49:00,71.7,48.0,30.08,NW,314,1.1,1.1,43,0.00,,,0.00,638.00,VWS V14.01,2013-02-06 18:49:00,
2013-02-06 13:54:00,71.8,46.2,30.08,NNE,20,2.2,3.3,40,0.00,,,0.00,631.00,VWS V14.01,2013-02-06 18:54:00,
2013-02-06 13:59:00,72.1,45.8,30.08,West,259,0.0,1.1,39,0.00,,,0.00,626.00,VWS V14.01,2013-02-06 18:59:00,
2013-02-06 14:04:00,72.8,45.7,30.08,NW,313,2.2,5.5,38,0.00,,,0.00,621.00,VWS V14.01,2013-02-06 19:04:00,
2013-02-06 14:09:00,72.4,44.7,30.08,NW,321,0.0,2.2,37,0.00,,,0.00,610.00,VWS V14.01,2013-02-06 19:09:00,
2013-02-06 14:14:00,72.8,45.8,30.08,NE,35,1.1,1.1,38,0.00,,,0.00,601.00,VWS V14.01,2013-02-06 19:14:00,
2013-02-06 14:19:00,73.8,45.9,30.08,NE,41,0.0,0.0,37,0.00,,,0.00,592.00,VWS V14.01,2013-02-06 19:19:00,
2013-02-06 14:24:00,74.1,46.2,30.08,North,358,3.3,3.3,37,0.00,,,0.00,582.00,VWS V14.01,2013-02-06 19:24:00,
2013-02-06 14:29:00,73.6,45.0,30.08,WNW,299,0.0,3.3,36,0.00,,,0.00,575.00,VWS V14.01,2013-02-06 19:29:00,
2013-02-06 14:34:00,73.2,45.4,30.08,WSW,243,0.0,1.1,37,0.00,,,0.00,568.00,VWS V14.01,2013-02-06 19:34:00,
2013-02-06 14:39:00,73.7,45.1,30.08,NNW,344,2.2,3.3,36,0.00,,,0.00,561.00,VWS V14.01,2013-02-06 19:39:00,
2013-02-06 14:44:00,73.6,45.7,30.08,North,8,1.1,2.2,37,0.00,,,0.00,552.00,VWS V14.01,2013-02-06 19:44:00,
2013-02-06 14:49:00,73.3,45.5,30.08,NW,322,3.3,3.3,37,0.00,,,0.00,538.00,VWS V14.01,2013-02-06 19:49:00,
2013-02-06 14:54:00,73.3,44.1,30.08,North,10,0.0,0.0,35,0.00,,,0.00,527.00,VWS V14.01,2013-02-06 19:54:00,
2013-02-06 14:59:00,73.8,45.2,30.08,NNE,31,0.0,1.1,36,0.00,,,0.00,517.00,VWS V14.01,2013-02-06 19:59:00,
2013-02-06 15:04:00,73.8,45.2,30.08,WSW,247,1.1,1.1,36,0.00,,,0.00,508.00,VWS V14.01,2013-02-06 20:04:00,
2013-02-06 15:09:00,73.8,43.8,30.08,NNW,333,3.3,3.3,34,0.00,,,0.00,496.00,VWS V14.01,2013-02-06 20:09:00,
2013-02-06 15:14:00,73.4,44.2,30.08,NNW,348,3.3,3.3,35,0.00,,,0.00,473.00,VWS V14.01,2013-02-06 20:14:00,
2013-02-06 15:19:00,73.7,44.3,30.08,NNW,338,3.3,4.4,35,0.00,,,0.00,461.00,VWS V14.01,2013-02-06 20:19:00,
2013-02-06 15:24:00,73.8,44.5,30.08,North,8,4.4,4.4,35,0.00,,,0.00,445.00,VWS V14.01,2013-02-06 20:24:00,
2013-02-06 15:29:00,73.3,44.1,30.08,NE,46,2.2,3.3,35,0.00,,,0.00,432.00,VWS V14.01,2013-02-06 20:29:00,
2013-02-06 15:34:00,73.8,43.8,30.08,NNW,329,2.2,5.5,34,0.00,,,0.00,418.00,VWS V14.01,2013-02-06 20:34:00,
2013-02-06 15:39:00,73.7,43.6,30.08,NNE,30,1.1,3.3,34,0.00,,,0.00,404.00,VWS V14.01,2013-02-06 20:39:00,
2013-02-06 15:44:00,73.7,44.3,30.08,North,2,0.0,1.1,35,0.00,,,0.00,392.00,VWS V14.01,2013-02-06 20:44:00,
2013-02-06 15:49:00,73.9,43.8,30.08,SSE,159,1.1,2.2,34,0.00,,,0.00,373.00,VWS V14.01,2013-02-06 20:49:00,
2013-02-06 15:54:00,73.8,51.2,30.08,SE,133,3.3,3.3,45,0.00,,,0.00,353.00,VWS V14.01,2013-02-06 20:54:00,
2013-02-06 15:59:00,73.1,52.2,30.08,SE,128,1.1,3.3,48,0.00,,,0.00,322.00,VWS V14.01,2013-02-06 20:59:00,
2013-02-06 16:04:00,72.8,52.5,30.08,SE,145,0.0,2.2,49,0.00,,,0.00,302.00,VWS V14.01,2013-02-06 21:04:00,
2013-02-06 16:09:00,72.2,52.6,30.08,SE,131,1.1,1.1,50,0.00,,,0.00,292.00,VWS V14.01,2013-02-06 21:09:00,
2013-02-06 16:14:00,72.2,53.0,30.08,SSE,168,1.1,2.2,51,0.00,,,0.00,279.00,VWS V14.01,2013-02-06 21:14:00,
2013-02-06 16:19:00,71.8,53.3,30.08,ESE,121,1.1,1.1,52,0.00,,,0.00,216.00,VWS V14.01,2013-02-06 21:19:00,
2013-02-06 16:24:00,71.3,53.3,30.08,ESE,108,0.0,3.3,53,0.00,,,0.00,176.00,VWS V14.01,2013-02-06 21:24:00,
2013-02-06 16:29:00,71.2,53.8,30.08,SE,140,0.0,0.0,54,0.00,,,0.00,127.00,VWS V14.01,2013-02-06 21:29:00,
2013-02-06 16:34:00,70.8,53.9,30.08,SE,135,0.0,0.0,55,0.00,,,0.00,153.00,VWS V14.01,2013-02-06 21:34:00,
2013-02-06 16:39:00,70.4,53.5,30.08,SSE,154,3.3,4.4,55,0.00,,,0.00,123.00,VWS V14.01,2013-02-06 21:39:00,
2013-02-06 16:44:00,69.8,52.5,30.08,SSE,168,1.1,2.2,54,0.00,,,0.00,88.00,VWS V14.01,2013-02-06 21:44:00,
2013-02-06 16:49:00,69.7,52.8,30.08,SSE,150,2.2,3.3,55,0.00,,,0.00,70.00,VWS V14.01,2013-02-06 21:49:00,
2013-02-06 16:54:00,69.3,54.0,30.08,South,170,0.0,0.0,58,0.00,,,0.00,63.00,VWS V14.01,2013-02-06 21:54:00,
2013-02-06 16:59:00,69.2,54.2,30.09,SSE,147,2.2,2.2,59,0.00,,,0.00,62.00,VWS V14.01,2013-02-06 21:59:00,
2013-02-06 17:04:00,68.8,54.3,30.09,SSE,152,0.0,0.0,60,0.00,,,0.00,51.00,VWS V14.01,2013-02-06 22:04:00,
2013-02-06 17:09:00,68.2,54.3,30.09,SE,131,0.0,0.0,61,0.00,,,0.00,69.00,VWS V14.01,2013-02-06 22:09:00,
2013-02-06 17:14:00,67.8,54.4,30.09,East,101,4.4,4.4,62,0.00,,,0.00,46.00,VWS V14.01,2013-02-06 22:14:00,
2013-02-06 17:19:00,67.2,54.2,30.09,SSE,158,0.0,0.0,63,0.00,,,0.00,51.00,VWS V14.01,2013-02-06 22:19:00,
2013-02-06 17:24:00,66.6,54.4,30.10,SE,145,0.0,1.1,65,0.00,,,0.00,35.00,VWS V14.01,2013-02-06 22:24:00,
2013-02-06 17:29:00,65.9,54.3,30.10,ESE,120,2.2,2.2,66,0.00,,,0.00,25.00,VWS V14.01,2013-02-06 22:29:00,
2013-02-06 17:34:00,65.2,54.0,30.10,ESE,105,0.0,0.0,67,0.00,,,0.00,19.00,VWS V14.01,2013-02-06 22:34:00,
2013-02-06 17:39:00,64.8,54.0,30.10,SSE,162,0.0,0.0,68,0.00,,,0.00,14.00,VWS V14.01,2013-02-06 22:39:00,
2013-02-06 17:44:00,64.2,53.9,30.10,SSE,166,0.0,0.0,69,0.00,,,0.00,11.00,VWS V14.01,2013-02-06 22:44:00,
2013-02-06 17:49:00,63.8,53.8,30.11,SE,140,0.0,1.1,70,0.00,,,0.00,7.00,VWS V14.01,2013-02-06 22:49:00,
2013-02-06 17:54:00,63.3,53.4,30.11,ENE,78,0.0,0.0,70,0.00,,,0.00,5.00,VWS V14.01,2013-02-06 22:54:00,
2013-02-06 17:59:00,62.8,53.2,30.11,ESE,119,0.0,0.0,71,0.00,,,0.00,0.00,VWS V14.01,2013-02-06 22:59:00,
2013-02-06 18:04:00,62.2,52.7,30.11,ESE,119,0.0,0.0,71,0.00,,,0.00,0.00,VWS V14.01,2013-02-06 23:04:00,
2013-02-06 18:09:00,61.7,52.5,30.11,SSE,159,0.0,0.0,72,0.00,,,0.00,0.00,VWS V14.01,2013-02-06 23:09:00,
2013-02-06 18:14:00,61.0,52.3,30.11,SSE,159,0.0,0.0,73,0.00,,,0.00,0.00,VWS V14.01,2013-02-06 23:14:00,
2013-02-06 18:19:00,60.2,51.8,30.11,SSE,159,0.0,0.0,74,0.00,,,0.00,0.00,VWS V14.01,2013-02-06 23:19:00,
2013-02-06 18:24:00,59.5,51.9,30.11,SSE,159,0.0,0.0,76,0.00,,,0.00,0.00,VWS V14.01,2013-02-06 23:24:00,
2013-02-06 18:29:00,58.8,51.7,30.12,SSE,159,0.0,0.0,77,0.00,,,0.00,0.00,VWS V14.01,2013-02-06 23:29:00,
2013-02-06 18:34:00,58.2,51.8,30.12,SSE,159,0.0,0.0,79,0.00,,,0.00,0.00,VWS V14.01,2013-02-06 23:34:00,
2013-02-06 18:39:00,57.8,51.4,30.12,SSE,159,0.0,0.0,79,0.00,,,0.00,0.00,VWS V14.01,2013-02-06 23:39:00,
2013-02-06 18:44:00,57.5,51.3,30.12,SSE,159,0.0,0.0,80,0.00,,,0.00,0.00,VWS V14.01,2013-02-06 23:44:00,
2013-02-06 18:49:00,57.2,51.4,30.12,SSE,159,0.0,0.0,81,0.00,,,0.00,0.00,VWS V14.01,2013-02-06 23:49:00,
2013-02-06 18:54:00,56.8,51.1,30.13,SSE,159,0.0,0.0,81,0.00,,,0.00,0.00,VWS V14.01,2013-02-06 23:54:00,
2013-02-06 18:59:00,56.3,50.6,30.13,SSE,159,0.0,0.0,81,0.00,,,0.00,0.00,VWS V14.01,2013-02-06 23:59:00,
2013-02-06 19:04:00,56.0,50.6,30.13,SSE,159,0.0,0.0,82,0.00,,,0.00,0.00,VWS V14.01,2013-02-07 00:04:00,
2013-02-06 19:09:00,55.7,50.6,30.13,SSE,159,0.0,0.0,83,0.00,,,0.00,0.00,VWS V14.01,2013-02-07 00:09:00,
2013-02-06 19:14:00,55.2,50.4,30.13,SSE,159,0.0,0.0,84,0.00,,,0.00,0.00,VWS V14.01,2013-02-07 00:14:00,
2013-02-06 19:19:00,54.8,50.3,30.13,SSE,159,0.0,0.0,85,0.00,,,0.00,0.00,VWS V14.01,2013-02-07 00:19:00,
2013-02-06 19:24:00,54.8,50.3,30.13,SSE,159,0.0,0.0,85,0.00,,,0.00,0.00,VWS V14.01,2013-02-07 00:24:00,
2013-02-06 19:29:00,54.3,50.3,30.14,SSE,159,0.0,0.0,86,0.00,,,0.00,0.00,VWS V14.01,2013-02-07 00:29:00,
2013-02-06 19:34:00,54.5,50.7,30.14,SSE,159,0.0,0.0,87,0.00,,,0.00,0.00,VWS V14.01,2013-02-07 00:34:00,
2013-02-06 19:39:00,54.3,50.3,30.14,SSE,159,0.0,0.0,86,0.00,,,0.00,0.00,VWS V14.01,2013-02-07 00:39:00,
2013-02-06 19:44:00,54.0,50.3,30.14,SSE,159,0.0,0.0,87,0.00,,,0.00,0.00,VWS V14.01,2013-02-07 00:44:00,
2013-02-06 19:49:00,54.0,50.3,30.14,SSE,159,0.0,0.0,87,0.00,,,0.00,0.00,VWS V14.01,2013-02-07 00:49:00,
2013-02-06 19:54:00,53.7,49.9,30.14,SSE,159,0.0,0.0,87,0.00,,,0.00,0.00,VWS V14.01,2013-02-07 00:54:00,
2013-02-06 19:59:00,53.2,49.7,30.15,SSE,159,0.0,0.0,88,0.00,,,0.00,0.00,VWS V14.01,2013-02-07 00:59:00,
2013-02-06 20:04:00,52.7,49.5,30.15,SSE,159,0.0,0.0,89,0.00,,,0.00,0.00,VWS V14.01,2013-02-07 01:04:00,
2013-02-06 20:09:00,52.3,49.2,30.15,SSE,159,0.0,0.0,89,0.00,,,0.00,0.00,VWS V14.01,2013-02-07 01:09:00,
2013-02-06 20:14:00,52.0,49.1,30.15,SSE,159,0.0,0.0,90,0.00,,,0.00,0.00,VWS V14.01,2013-02-07 01:14:00,
2013-02-06 20:19:00,51.5,48.7,30.14,SSE,159,0.0,0.0,90,0.00,,,0.00,0.00,VWS V14.01,2013-02-07 01:19:00,
2013-02-06 20:24:00,51.5,48.7,30.15,SSE,159,0.0,0.0,90,0.00,,,0.00,0.00,VWS V14.01,2013-02-07 01:24:00,
2013-02-06 20:29:00,51.2,48.3,30.15,SSE,159,0.0,0.0,90,0.00,,,0.00,0.00,VWS V14.01,2013-02-07 01:29:00,
2013-02-06 20:34:00,51.0,48.5,30.15,SSE,159,0.0,0.0,91,0.00,,,0.00,0.00,VWS V14.01,2013-02-07 01:34:00,
2013-02-06 20:39:00,51.0,48.5,30.15,SSE,159,0.0,0.0,91,0.00,,,0.00,0.00,VWS V14.01,2013-02-07 01:39:00,
2013-02-06 20:44:00,50.8,48.3,30.15,SSE,159,0.0,0.0,91,0.00,,,0.00,0.00,VWS V14.01,2013-02-07 01:44:00,
2013-02-06 20:49:00,50.8,48.3,30.15,SSE,159,0.0,0.0,91,0.00,,,0.00,0.00,VWS V14.01,2013-02-07 01:49:00,
2013-02-06 20:54:00,50.8,48.2,30.14,SSE,159,0.0,0.0,91,0.00,,,0.00,0.00,VWS V14.01,2013-02-07 01:54:00,
2013-02-06 20:59:00,50.5,48.0,30.14,SSE,159,0.0,0.0,91,0.00,,,0.00,0.00,VWS V14.01,2013-02-07 01:59:00,
2013-02-06 21:04:00,50.3,47.8,30.14,SSE,159,0.0,0.0,91,0.00,,,0.00,0.00,VWS V14.01,2013-02-07 02:04:00,
2013-02-06 21:09:00,50.3,48.1,30.14,SSE,159,0.0,0.0,92,0.00,,,0.00,0.00,VWS V14.01,2013-02-07 02:09:00,
2013-02-06 21:14:00,50.3,48.1,30.14,SSE,159,0.0,0.0,92,0.00,,,0.00,0.00,VWS V14.01,2013-02-07 02:14:00,
2013-02-06 21:19:00,50.0,47.5,30.14,SSE,159,0.0,0.0,91,0.00,,,0.00,0.00,VWS V14.01,2013-02-07 02:19:00,
2013-02-06 21:24:00,49.7,47.4,30.14,SSE,159,0.0,0.0,92,0.00,,,0.00,0.00,VWS V14.01,2013-02-07 02:24:00,
2013-02-06 21:29:00,49.5,47.3,30.14,SSE,159,0.0,0.0,92,0.00,,,0.00,0.00,VWS V14.01,2013-02-07 02:29:00,
2013-02-06 21:34:00,49.5,47.2,30.14,SSE,159,0.0,0.0,92,0.00,,,0.00,0.00,VWS V14.01,2013-02-07 02:34:00,
2013-02-06 21:39:00,49.2,47.0,30.14,SSE,159,0.0,0.0,92,0.00,,,0.00,0.00,VWS V14.01,2013-02-07 02:39:00,
2013-02-06 21:44:00,48.7,46.4,30.14,SSE,159,0.0,0.0,92,0.00,,,0.00,0.00,VWS V14.01,2013-02-07 02:44:00,
2013-02-06 21:49:00,48.5,46.6,30.14,SSE,159,0.0,0.0,93,0.00,,,0.00,0.00,VWS V14.01,2013-02-07 02:49:00,
2013-02-06 21:54:00,48.8,47.2,30.14,SSE,159,0.0,0.0,94,0.00,,,0.00,0.00,VWS V14.01,2013-02-07 02:54:00,
2013-02-06 21:59:00,48.5,46.6,30.15,SSE,159,0.0,0.0,93,0.00,,,0.00,0.00,VWS V14.01,2013-02-07 02:59:00,
2013-02-06 22:04:00,48.5,46.9,30.16,SSE,159,0.0,0.0,94,0.00,,,0.00,0.00,VWS V14.01,2013-02-07 03:04:00,
2013-02-06 22:09:00,48.5,46.9,30.17,SSE,159,0.0,0.0,94,0.00,,,0.00,0.00,VWS V14.01,2013-02-07 03:09:00,
2013-02-06 22:14:00,48.2,46.6,30.17,SSE,159,0.0,0.0,94,0.00,,,0.00,0.00,VWS V14.01,2013-02-07 03:14:00,
2013-02-06 22:19:00,48.2,46.6,30.17,SSE,159,0.0,0.0,94,0.00,,,0.00,0.00,VWS V14.01,2013-02-07 03:19:00,
2013-02-06 22:24:00,48.0,46.3,30.17,SSE,159,0.0,0.0,94,0.00,,,0.00,0.00,VWS V14.01,2013-02-07 03:24:00,
2013-02-06 22:29:00,48.0,46.3,30.17,SSE,159,0.0,0.0,94,0.00,,,0.00,0.00,VWS V14.01,2013-02-07 03:29:00,
2013-02-06 22:34:00,47.8,46.1,30.17,SSE,159,0.0,0.0,94,0.00,,,0.00,0.00,VWS V14.01,2013-02-07 03:34:00,
2013-02-06 22:39:00,47.5,45.9,30.17,SSE,159,0.0,0.0,94,0.00,,,0.00,0.00,VWS V14.01,2013-02-07 03:39:00,
2013-02-06 22:44:00,47.3,45.7,30.17,SSE,159,0.0,0.0,94,0.00,,,0.00,0.00,VWS V14.01,2013-02-07 03:44:00,
2013-02-06 22:49:00,47.0,45.4,30.17,SSE,159,0.0,0.0,94,0.00,,,0.00,0.00,VWS V14.01,2013-02-07 03:49:00,
2013-02-06 22:54:00,47.0,45.4,30.17,SSE,159,0.0,0.0,94,0.00,,,0.00,0.00,VWS V14.01,2013-02-07 03:54:00,
2013-02-06 22:59:00,47.0,45.4,30.17,SSE,159,0.0,0.0,94,0.00,,,0.00,0.00,VWS V14.01,2013-02-07 03:59:00,
2013-02-06 23:04:00,47.0,45.3,30.17,SSE,159,0.0,0.0,94,0.00,,,0.00,0.00,VWS V14.01,2013-02-07 04:04:00,
2013-02-06 23:09:00,47.0,45.4,30.17,SSE,159,0.0,0.0,94,0.00,,,0.00,0.00,VWS V14.01,2013-02-07 04:09:00,
2013-02-06 23:14:00,47.2,45.5,30.16,SSE,159,0.0,0.0,94,0.00,,,0.00,0.00,VWS V14.01,2013-02-07 04:14:00,
2013-02-06 23:19:00,47.0,45.3,30.16,SSE,159,0.0,0.0,94,0.00,,,0.00,0.00,VWS V14.01,2013-02-07 04:19:00,
2013-02-06 23:24:00,46.8,45.2,30.16,SSE,159,0.0,0.0,94,0.00,,,0.00,0.00,VWS V14.01,2013-02-07 04:24:00,
2013-02-06 23:29:00,46.7,45.0,30.16,SSE,159,0.0,0.0,94,0.00,,,0.00,0.00,VWS V14.01,2013-02-07 04:29:00,
2013-02-06 23:34:00,46.5,44.9,30.16,SSE,159,0.0,0.0,94,0.00,,,0.00,0.00,VWS V14.01,2013-02-07 04:34:00,
2013-02-06 23:39:00,46.3,44.7,30.16,SSE,159,0.0,0.0,94,0.00,,,0.00,0.00,VWS V14.01,2013-02-07 04:39:00,
2013-02-06 23:44:00,46.3,44.7,30.16,SSE,159,0.0,0.0,94,0.00,,,0.00,0.00,VWS V14.01,2013-02-07 04:44:00,
2013-02-06 23:49:00,46.2,44.5,30.15,SSE,159,0.0,0.0,94,0.00,,,0.00,0.00,VWS V14.01,2013-02-07 04:49:00,
2013-02-06 23:54:00,46.0,44.4,30.15,SSE,159,0.0,0.0,94,0.00,,,0.00,0.00,VWS V14.01,2013-02-07 04:54:00,
2013-02-06 23:59:00,46.0,44.4,30.16,SSE,159,0.0,0.0,94,0.00,,,0.00,0.00,VWS V14.01,2013-02-07 04:59:00,